カタログに戻る

MOLNIYA 1-87

運用中通信HEO
NORAD 22949·PAYLOAD·🇷🇺 Russia

打ち上げ Dec 22, 1993 から Plesetsk Cosmodrome

Loading…

次のパス (今後24時間)

TLE

最新Source: Space-Track

元期: Sep 12, 2026, 21:13 UTC

1 22949U 93079A   26255.88453774  .00000086  00000-0  00000-0 0  9994
2 22949  64.8378 274.0086 6746913 268.2473  19.7253  2.02848527106348

AllMySatでMOLNIYA 1-87をリアルタイム追跡

Download on the App Store